This is the latest recevied weather packets stored in our database for station/object KD4UFD. If no packets are shown the sender has not sent any weather packets the latest 10 day(s).
| Time | Temp. | Humidity | Pressure | Rain* | Wind** | Luminosity | Snow |
|---|---|---|---|---|---|---|---|
| 1777511277 | 18.89° C | 79% | 1011.2 hPa | 0 mm | - | 0 W/m² | - |
| 1777510972 | 18.89° C | 78% | 1011.4 hPa | 0 mm | - | 0 W/m² | - |
| 1777510669 | 18.89° C | 78% | 1011.6 hPa | 0 mm | - | 0 W/m² | - |
| 1777510365 | 19.44° C | 78% | 1011.3 hPa | 0 mm | - | 0 W/m² | - |
| 1777510061 | 19.44° C | 77% | 1011.1 hPa | 0 mm | - | 0 W/m² | - |
| 1777509758 | 19.44° C | 77% | 1011.3 hPa | 0 mm | - | 0 W/m² | - |
| 1777509454 | 19.44° C | 77% | 1011.1 hPa | 0 mm | - | 0 W/m² | - |
| 1777509152 | 19.44° C | 78% | 1011.2 hPa | 0 mm | - | 0 W/m² | - |
| 1777508848 | 20° C | 77% | 1011.1 hPa | 0 mm | - | 0 W/m² | - |
| 1777508545 | 20° C | 77% | 1010.9 hPa | 0 mm | - | 1 W/m² | - |
| 1777508242 | 20° C | 77% | 1011.1 hPa | 0 mm | - | 4 W/m² | - |
| 1777507940 | 20.56° C | 76% | 1011 hPa | 0 mm | - | 7 W/m² | - |
| 1777507636 | 20.56° C | 76% | 1010.7 hPa | 0 mm | - | 11 W/m² | - |
| 1777507333 | 20.56° C | 75% | 1010.7 hPa | 0 mm | - | 14 W/m² | - |
| 1777507031 | 21.11° C | 75% | 1010.5 hPa | 0 mm | - | 17 W/m² | - |
| 1777506728 | 21.11° C | 74% | 1010.5 hPa | 0 mm | - | 23 W/m² | - |
| 1777506424 | 21.11° C | 74% | 1010.2 hPa | 0 mm | - | 26 W/m² | - |
| 1777506120 | 21.67° C | 73% | 1010.4 hPa | 0 mm | - | 30 W/m² | - |
| 1777505816 | 21.67° C | 73% | 1010.2 hPa | 0 mm | - | 33 W/m² | - |
| 1777505512 | 21.67° C | 73% | 1010.2 hPa | 0 mm | - | 37 W/m² | - |
| 1777505209 | 21.67° C | 74% | 1010.3 hPa | 0 mm | - | 39 W/m² | - |
| 1777504906 | 22.22° C | 73% | 1010.5 hPa | 0 mm | - | 43 W/m² | - |
| 1777504603 | 22.78° C | 72% | 1010.4 hPa | 0 mm | - | 67 W/m² | - |
| 1777504299 | 22.78° C | 72% | 1010.4 hPa | 0 mm | - | 97 W/m² | - |
| 1777503994 | 22.78° C | 72% | 1010.4 hPa | 0 mm | - | 105 W/m² | - |
* Rain latest hour (hover to see other rain measurements)
** Current wind speed in m/s (hover to see current wind gust speed)